When you browse on this site, cookies collect data to enhance your experience and personalize the content and advertising you see.
Visit our Privacy Policy to learn more. By continuing to use the site, you agree to this use of cookies and data.
  • In Portugal
  • List of Countries
  • For 7 days
  • Water Temperature
  • Satellite Maps
  • Weather Map
  • Weather Widgets
  • user-avatar
    Login

    Hourly Weather Hasselt

    Today, 16 December, Sunday

    Time Temperature Precipitation Wind Pressure Humidity
    00:00 -1°C° 0 mm 5 mps 755 mmHg 86%
    01:00 -1°C° 0.7 mm 5 mps 755 mmHg 88%
    02:00 -1°C° 0.7 mm 5 mps 754 mmHg 89%
    03:00 -1°C° 0.7 mm 4 mps 754 mmHg 90%
    04:00 -1°C° 0 mm 4 mps 754 mmHg 91%
    05:00 -1°C° 0 mm 4 mps 754 mmHg 92%
    06:00 -1°C° 0 mm 4 mps 754 mmHg 90%
    07:00 -1°C° 0 mm 4 mps 754 mmHg 91%
    08:00 -1°C° 0 mm 4 mps 755 mmHg 92%
    09:00 0°C° 0 mm 3 mps 755 mmHg 93%
    10:00 +1°C° 0 mm 3 mps 755 mmHg 95%
    11:00 +2°C° 0 mm 3 mps 755 mmHg 96%
    12:00 +2°C° 0 mm 3 mps 755 mmHg 97%
    13:00 +2°C° 0 mm 3 mps 755 mmHg 98%
    14:00 +2°C° 0 mm 3 mps 755 mmHg 98%
    15:00 +3°C° 0 mm 2 mps 755 mmHg 98%
    16:00 +2°C° 0 mm 3 mps 755 mmHg 98%
    17:00 +2°C° 0 mm 3 mps 755 mmHg 98%
    18:00 +2°C° 0 mm 3 mps 756 mmHg 98%
    19:00 +2°C° 0 mm 3 mps 756 mmHg 97%
    20:00 +2°C° 0 mm 3 mps 756 mmHg 96%
    21:00 +2°C° 0 mm 3 mps 756 mmHg 96%
    22:00 +2°C° 0 mm 3 mps 756 mmHg 95%
    23:00 +1°C° 0 mm 4 mps 756 mmHg 94%

    Tomorrow, 17 December, Monday

    Time Temperature Precipitation Wind Pressure Humidity
    00:00 +1°C° 0 mm 4 mps 756 mmHg 94%
    01:00 +1°C° 0 mm 4 mps 756 mmHg 93%
    02:00 +3°C° 0 mm 4 mps 756 mmHg 93%
    03:00 +2°C° 0 mm 5 mps 756 mmHg 92%
    04:00 +2°C° 0.3 mm 5 mps 757 mmHg 92%
    05:00 +2°C° 0.3 mm 5 mps 757 mmHg 93%
    06:00 +2°C° 0.3 mm 5 mps 757 mmHg 93%
    07:00 +2°C° 0.2 mm 5 mps 758 mmHg 93%
    08:00 +3°C° 0.2 mm 4 mps 759 mmHg 94%
    09:00 +3°C° 0.2 mm 4 mps 759 mmHg 94%
    10:00 +4°C° 0 mm 4 mps 760 mmHg 92%
    11:00 +5°C° 0 mm 4 mps 760 mmHg 90%
    12:00 +5°C° 0 mm 4 mps 761 mmHg 87%
    13:00 +5°C° 0 mm 4 mps 761 mmHg 89%
    14:00 +5°C° 0 mm 4 mps 762 mmHg 90%
    15:00 +4°C° 0 mm 4 mps 762 mmHg 92%
    16:00 +4°C° 0 mm 4 mps 763 mmHg 92%
    17:00 +4°C° 0 mm 4 mps 763 mmHg 93%
    18:00 +3°C° 0 mm 4 mps 764 mmHg 94%
    19:00 +3°C° 0 mm 4 mps 764 mmHg 94%
    20:00 +3°C° 0 mm 4 mps 765 mmHg 94%
    21:00 +3°C° 0 mm 4 mps 765 mmHg 94%
    22:00 +3°C° 0 mm 4 mps 765 mmHg 94%
    23:00 +3°C° 0 mm 4 mps 765 mmHg 94%

    Day after tomorrow, 18 December, Tuesday

    Time Temperature Precipitation Wind Pressure Humidity
    00:00 +3°C° 0 mm 4 mps 765 mmHg 94%
    01:00 +3°C° 0 mm 4 mps 765 mmHg 93%
    02:00 +3°C° 0 mm 4 mps 765 mmHg 93%
    03:00 +1°C° 0 mm 4 mps 764 mmHg 93%
    04:00 +3°C° 0 mm 4 mps 764 mmHg 93%
    05:00 +3°C° 0 mm 4 mps 764 mmHg 93%
    06:00 +3°C° 0 mm 4 mps 764 mmHg 93%
    07:00 +3°C° 0 mm 4 mps 764 mmHg 92%
    08:00 +3°C° 0 mm 4 mps 763 mmHg 91%
    09:00 +3°C° 0 mm 4 mps 763 mmHg 91%
    10:00 +3°C° 0 mm 5 mps 762 mmHg 86%
    11:00 +5°C° 0 mm 5 mps 762 mmHg 81%
    12:00 +6°C° 0 mm 5 mps 761 mmHg 76%
    13:00 +6°C° 0 mm 5 mps 760 mmHg 76%
    14:00 +5°C° 0 mm 5 mps 759 mmHg 75%
    15:00 +5°C° 0 mm 4 mps 758 mmHg 74%
    16:00 +3°C° 0 mm 5 mps 758 mmHg 73%
    17:00 +3°C° 0 mm 5 mps 758 mmHg 72%
    18:00 +2°C° 0 mm 5 mps 757 mmHg 71%
    19:00 +3°C° 0 mm 6 mps 757 mmHg 71%
    20:00 +3°C° 0 mm 6 mps 756 mmHg 71%
    21:00 +3°C° 0 mm 6 mps 756 mmHg 70%
    22:00 +3°C° 0 mm 6 mps 755 mmHg 72%
    23:00 +4°C° 0 mm 6 mps 755 mmHg 74%

    19 December, Wednesday

    Time Temperature Precipitation Wind Pressure Humidity
    00:00 +4°C° 0 mm 6 mps 754 mmHg 75%
    01:00 +4°C° 0.3 mm 6 mps 754 mmHg 79%
    02:00 +5°C° 0.3 mm 6 mps 754 mmHg 83%
    03:00 +5°C° 0.3 mm 6 mps 754 mmHg 87%
    04:00 +6°C° 0.1 mm 5 mps 755 mmHg 89%
    05:00 +6°C° 0.1 mm 5 mps 755 mmHg 91%
    06:00 +6°C° 0.1 mm 4 mps 755 mmHg 92%
    07:00 +6°C° 0 mm 4 mps 755 mmHg 92%
    08:00 +6°C° 0 mm 4 mps 756 mmHg 92%
    09:00 +6°C° 0 mm 4 mps 756 mmHg 92%
    10:00 +7°C° 0 mm 4 mps 756 mmHg 89%
    11:00 +7°C° 0 mm 4 mps 755 mmHg 85%
    12:00 +8°C° 0 mm 4 mps 755 mmHg 82%
    13:00 +7°C° 0 mm 4 mps 755 mmHg 84%
    14:00 +7°C° 0 mm 4 mps 755 mmHg 85%
    15:00 +7°C° 0 mm 4 mps 755 mmHg 87%
    16:00 +7°C° 0.1 mm 4 mps 755 mmHg 87%
    17:00 +6°C° 0.1 mm 4 mps 755 mmHg 87%
    18:00 +6°C° 0.1 mm 4 mps 755 mmHg 88%
    19:00 +6°C° 0 mm 4 mps 755 mmHg 89%
    20:00 +7°C° 0 mm 3 mps 756 mmHg 89%
    21:00 +5°C° 0 mm 3 mps 756 mmHg 90%
    22:00 +5°C° 0 mm 3 mps 756 mmHg 91%
    23:00 +4°C° 0 mm 3 mps 756 mmHg 92%

    20 December, Thursday

    Time Temperature Precipitation Wind Pressure Humidity
    00:00 +4°C° 0 mm 3 mps 756 mmHg 93%
    01:00 +4°C° 0 mm 3 mps 756 mmHg 93%
    02:00 +3°C° 0 mm 3 mps 756 mmHg 93%
    03:00 +3°C° 0 mm 3 mps 756 mmHg 94%
    04:00 +3°C° 0 mm 3 mps 756 mmHg 93%
    05:00 +3°C° 0 mm 3 mps 757 mmHg 93%
    06:00 +3°C° 0 mm 4 mps 757 mmHg 93%
    07:00 +3°C° 0 mm 4 mps 757 mmHg 91%
    08:00 +3°C° 0 mm 4 mps 757 mmHg 90%
    09:00 +3°C° 0 mm 5 mps 757 mmHg 89%
    10:00 +3°C° 0 mm 5 mps 757 mmHg 86%
    11:00 +4°C° 0 mm 6 mps 757 mmHg 84%
    12:00 +4°C° 0 mm 6 mps 757 mmHg 82%
    13:00 +4°C° 0 mm 6 mps 757 mmHg 82%
    14:00 +5°C° 0 mm 5 mps 757 mmHg 83%
    15:00 +5°C° 0 mm 5 mps 757 mmHg 84%
    16:00 +5°C° 0.4 mm 5 mps 757 mmHg 85%
    17:00 +5°C° 0.4 mm 5 mps 757 mmHg 86%
    18:00 +4°C° 0.4 mm 6 mps 757 mmHg 87%
    19:00 +4°C° 0.6 mm 6 mps 757 mmHg 86%
    20:00 +4°C° 0.6 mm 6 mps 757 mmHg 86%
    21:00 +4°C° 0.6 mm 6 mps 757 mmHg 86%
    22:00 +4°C° 0.7 mm 6 mps 757 mmHg 87%
    23:00 +4°C° 0.7 mm 6 mps 757 mmHg 87%

    21 December, Friday

    Time Temperature Precipitation Wind Pressure Humidity
    00:00 +4°C° 0.7 mm 6 mps 757 mmHg 88%
    01:00 +4°C° 0.6 mm 6 mps 757 mmHg 88%
    02:00 +5°C° 0.6 mm 5 mps 757 mmHg 89%
    03:00 +5°C° 0.6 mm 5 mps 757 mmHg 89%
    04:00 +4°C° 0.1 mm 4 mps 756 mmHg 90%
    05:00 +4°C° 0.1 mm 4 mps 756 mmHg 91%
    06:00 +4°C° 0.1 mm 3 mps 756 mmHg 92%
    07:00 +4°C° 0 mm 3 mps 755 mmHg 91%
    08:00 +5°C° 0 mm 3 mps 755 mmHg 91%
    09:00 +5°C° 0 mm 3 mps 754 mmHg 91%
    10:00 +7°C° 0.5 mm 3 mps 754 mmHg 91%
    11:00 +7°C° 0.5 mm 3 mps 753 mmHg 91%
    12:00 +8°C° 0.5 mm 3 mps 752 mmHg 91%
    13:00 +7°C° 1.1 mm 4 mps 751 mmHg 92%
    14:00 +8°C° 1.1 mm 4 mps 751 mmHg 93%
    15:00 +8°C° 1.1 mm 4 mps 750 mmHg 94%
    16:00 +9°C° 0.3 mm 5 mps 750 mmHg 92%
    17:00 +9°C° 0.3 mm 6 mps 750 mmHg 91%
    18:00 +10°C° 0.3 mm 7 mps 750 mmHg 90%
    19:00 +9°C° 0.1 mm 7 mps 751 mmHg 88%
    20:00 +9°C° 0.1 mm 7 mps 752 mmHg 85%
    21:00 +8°C° 0.1 mm 7 mps 753 mmHg 83%
    22:00 +8°C° 0 mm 7 mps 753 mmHg 84%
    23:00 +7°C° 0 mm 6 mps 754 mmHg 85%
    Show more